Weather Roundup
Issued by NWS Springfield, MO

Home | Current Version | Previous Version | Text Only | Print | Product List | Glossary On
Versions: 1 2 3 4 5 6 7 8 9 10 11 12 13 14 15 16 17 18 19 20 21 22 23 24 25 26 27 28 29 30 31 32 33 34 35 36 37 38 39 40 41 42 43 44 45 46 47 48 49 50
000
NZUS99 KSGF 261959
HRRSGF

HOURLY WEATHER
NATIONAL WEATHER SERVICE SPRINGFIELD MO
300 PM CDT SAT JUL 26 2014

......SGF CWA......

CITY           SKY/WX    TMP DP  RH WIND       PRES   REMARKS
SPRINGFIELD    SUNNY     96  69  41 SW16      29.93S HX 102
JOPLIN         MOSUNNY   98  68  37 SW17G25   29.91S HX 103
WEST PLAINS    SUNNY     93  72  50 S9G17     29.96F HX 101
ROLLA          PTSUNNY   94  67  41 SW8       29.89S HX  97
OSAGE BEACH      N/A     97  68  38 W8        29.87F HX 101
BRANSON        PTSUNNY  100  66  32 W12       29.97F HX 104

......SURROUNDING SGF CWA......

CITY           SKY/WX    TMP DP  RH WIND       PRES   REMARKS
CHANUTE        MOSUNNY   96  73  47 S17G24    29.86F HX 105
PARSONS        MOSUNNY   97  72  44 SW10G22   29.88F HX 105
COFFEYVILLE    MOSUNNY   98  72  42 S18       29.87F HX 107
EMPORIA        PTSUNNY   98  66  34 SW17G26   29.83F HX 101
SILOAM SPRINGS MOSUNNY   91  68  46 SW15      29.98S HX  95
HARRISON AR    SUNNY     92  70  48 S9        29.98S HX  97
NEAR YELLVILLE SUNNY     95  70  43 W13       29.95S HX 101

......KANSAS AND MISSOURI......

CITY           SKY/WX    TMP DP  RH WIND       PRES   REMARKS
KANSAS CTY INT CLOUDY    83  73  72 S3        29.85R
DOWNTOWN KC    CLOUDY    86  73  65 E3        29.83R HX  93
COLUMBIA       CLOUDY    80  72  76 W5        29.90S
SEDALIA        CLOUDY    86  77  74 CALM      29.89F HX  97
ST JOSEPH      MOSUNNY   87  71  58 S5        29.82R HX  93
ST LOUIS       PTSUNNY   98  70  40 W16       29.84S HX 105
SPIRIT OF STL  CLOUDY    96  68  39 SW16G22   29.83R HX 101
KIRKSVILLE     CLOUDY    80  73  79 S8        29.85F
WICHITA        PTSUNNY  102  63  27 SW20G25   29.83F HX 104
TOPEKA         CLOUDY    90  71  53 VRB5      29.81F HX  96
OLATHE         CLOUDY    84  73  69 SW6       29.83S HX  90

......TENNESSEE......

CITY           SKY/WX    TMP DP  RH WIND       PRES   REMARKS
MEMPHIS        MOSUNNY   92  75  57 SW10G16   29.97F HX 103
NASHVILLE      MOSUNNY   91  69  48 S12       29.97F HX  96

......ARKANSAS.......

CITY           SKY/WX    TMP DP  RH WIND       PRES   REMARKS
FAYETTEVILLE   MOSUNNY   92  69  47 SW16G26   29.98F HX  97
FT SMITH       SUNNY     94  73  50 S13       29.95F HX 103
LITTLE ROCK    PTSUNNY   93  75  55 SW13      29.97F HX 104

......OKLAHOMA.......

CITY           SKY/WX    TMP DP  RH WIND       PRES   REMARKS
TULSA          PTSUNNY   99  68  36 S13G20    29.88F HX 104
PONCA CITY     SUNNY     99  69  37 S12G22    29.87F HX 105
MCALESTER      SUNNY     94  68  42 S9G21     29.95F HX  98
OKLAHOMA CITY  MOSUNNY   99  66  33 SW12G21   29.92F HX 103

......IOWA............

CITY           SKY/WX    TMP DP  RH WIND       PRES   REMARKS
DES MOINES     CLOUDY    85  69  58 E8        29.86S
QUAD CITIES    CLOUDY    79  70  74 N6        29.85R

......ILLINOIS........

CITY           SKY/WX    TMP DP  RH WIND       PRES   REMARKS
QUINCY         LGT RAIN  81  77  88 W8        29.86S FOG
CHICAGO        CLOUDY    82  66  58 W5        29.81R



USA.gov is the U.S. government's official web portal to all federal, state and local government web resources and services.